Location: Newark
(30.1000°N, 109.4667°E)
Time: 17:57:33
(UTC+00:00)

SR - Pass Details

Date: 26 February 2020
Orbit: 578 x 878 km, 66.7° (Epoch: 05 April)

Event Time Altitude Azimuth Distance (km) Brightness Sun altitude
Rises 16:37:35 0° 332° (NNW) 3,171 - -68.2°
Reaches altitude 10° 16:40:04 10° 330° (NNW) 2,195 - -68.3°
Maximum altitude 16:44:59 69° 248° (WSW) 715 - -68.5°
Drops below altitude 10° 16:49:29 10° 165° (SSE) 2,003 - -68.6°
Sets 16:51:40 0° 163° (SSE) 2,870 - -68.6°
